Location: Newark
(33.7333°N, 7.5167°E)
Time: 08:23:33
(UTC+00:00)

Hubble Space Telescope - Visible Passes

Search period start: 18 November 2019 00:00
Search period end: 28 November 2019 00:00
Orbit: 536 x 540 km, 28.5° (Epoch: 17 November)

Date Brightness Start Highest point End Pass type
(mag) Time Alt. Az. Time Alt. Az. Time Alt. Az.
18 Nov 2.3 18:15:37 10° SW 18:18:38 25° S 18:18:38 25° S visible
19 Nov 2.0 18:04:49 10° SW 18:08:24 29° SSE 18:08:41 29° SSE visible
20 Nov 1.9 17:54:03 10° SW 17:57:45 32° S 17:58:42 28° SE visible
21 Nov 1.8 17:43:20 10° WSW 17:47:07 35° S 17:48:44 25° SE visible
22 Nov 1.8 17:32:39 10° WSW 17:36:28 37° S 17:38:46 20° ESE visible
22 Nov 3.8 19:13:34 10° WSW 19:14:06 13° WSW 19:14:06 13° WSW visible
23 Nov 1.8 17:21:59 10° WSW 17:25:50 39° S 17:28:49 15° ESE visible
23 Nov 3.5 19:03:01 10° WSW 19:04:09 17° WSW 19:04:09 17° WSW visible
24 Nov 1.8 17:11:21 10° WSW 17:15:13 40° S 17:18:54 11° ESE visible
24 Nov 3.1 18:52:28 10° WSW 18:54:15 21° SW 18:54:15 21° SW visible
25 Nov 1.9 17:00:43 10° WSW 17:04:35 39° S 17:08:26 10° ESE visible
25 Nov 2.8 18:41:59 10° WSW 18:44:24 23° SW 18:44:24 23° SW visible
26 Nov 2.0 16:50:07 10° WSW 16:53:57 38° S 16:57:47 10° ESE visible
26 Nov 2.7 18:31:31 10° WSW 18:34:39 22° SSW 18:34:39 22° SSW visible
27 Nov 2.9 18:21:08 10° WSW 18:24:03 19° SSW 18:25:00 17° S visible
